Location: Alston School (historical)
(35.5076°N, 89.8251°W)
Time: 21:57:13
(UTC+00:00)

Cosmos 2279 Rocket - Pass Details

Date: 09 December 2025
Orbit: 963 x 977 km, 82.9° (Epoch: 16 January)

Event Time Altitude Azimuth Distance (km) Brightness Sun altitude
Rises 23:09:41 0° 193° (SSW) 3,638 7.6 -5.1°
Reaches altitude 10° 23:12:12 10° 196° (SSW) 2,697 6.9 -5.5°
Maximum altitude 23:18:19 66° 278° (W) 1,052 4.5 -6.7°
Drops below altitude 10° 23:24:31 10° 0° (N) 2,722 6.1 -7.8°
Sets 23:27:04 0° 4° (N) 3,675 6.8 -8.3°
